Regional Weather Roundup
Issued by NWS Upton, NY

Current Version | Previous Version | Text Only | Print | Product List | Glossary On
Versions: 1 2 3 4 5 6 7 8 9 10 11 12 13 14 15 16 17 18 19 20 21 22 23 24 25 26 27 28 29 30 31 32 33 34 35 36 37 38 39 40 41 42 43 44 45 46 47 48 49 50
000
ASUS41 KOKX 260005
RWROKX

REGIONAL WEATHER ROUNDUP
NATIONAL WEATHER SERVICE NEW YORK NY
700 PM EST TUE NOV 25 2014

NOTE: "FAIR" INDICATES FEW OR NO CLOUDS BELOW 12,000 FEET WITH NO
SIGNIFICANT WEATHER AND/OR OBSTRUCTIONS TO VISIBILITY.

NYZ071-072-176-178-NJZ106-104-260100-
NEW YORK CITY METRO AREA


CITY           SKY/WX    TMP DP  RH WIND       PRES   REMARKS
CENTRAL PARK   MOCLDY    52  28  39 MISG      30.08R
LAGUARDIA APRT CLOUDY    53  28  38 W10       30.06R
KENNEDY INTL   CLOUDY    49  37  63 W9        30.07R
NEWARK/LIBERTY MOCLDY    50  31  48 SW9       30.07R
BRNX BOT. GARD   N/A    N/A N/A N/A W8        30.08R
TETERBORO      MOCLDY    52  28  39 SW8       30.05R
$$

NYZ177-179-078>081-260100-
LONG ISLAND NEW YORK

CITY           SKY/WX    TMP DP  RH WIND       PRES   REMARKS
FARMINGDALE    NOT AVBL
ISLIP          CLOUDY    46  34  62 SW5       30.04R
SHIRLEY        CLOUDY    48  35  60 SW5       30.06R
WESTHAMPTON    CLOUDY    44  36  73 CALM      30.05S
MONTAUK POINT    N/A     52  34  50 W5        30.05R
$$

NYZ052-065-067-260100-
HUDSON VALLEY

CITY           SKY/WX    TMP DP  RH WIND       PRES   REMARKS
WHITE PLAINS   MOCLDY    48  29  47 SW3       30.04R
NEWBURGH       NOT AVBL
MONTGOMERY     PTCLDY    38  29  70 CALM      30.04R
POUGHKEEPSIE   PTCLDY    41  31  67 CALM      30.04R
ALBANY         PTCLDY    38  25  59 SW7       30.02R WCI  33
$$

NJZ001-105-106-008-010-013-015-019>022-104-260100-
NEW JERSEY

CITY           SKY/WX    TMP DP  RH WIND       PRES   REMARKS
NEWARK/LIBERTY MOCLDY    50  31  48 SW9       30.07R
TETERBORO      MOCLDY    52  28  39 SW8       30.05R
CALDWELL       MOCLDY    45  30  55 CALM      30.07R
MORRISTOWN     MOCLDY    41  32  70 W5        30.07R
SOMERVILLE     MOCLDY    40  32  73 CALM      30.06R
SUSSEX         PTCLDY    38  29  70 CALM      30.06R
ANDOVER          N/A     38  34  85 CALM      30.07R
TRENTON        MOCLDY    48  29  47 W3        30.08R
MILLVILLE      CLOUDY    45  37  73 CALM      30.09R
ATLANTIC CITY  MOCLDY    49  35  58 CALM      30.09R
WRIGHTSTOWN    MOCLDY    45  34  63 SW2       30.07R
TOMS RIVER     CLOUDY    45  37  76 CALM      30.10R
BELMAR         CLOUDY    48  28  46 SW6       30.07R
$$

PAZ047>061-062-071-260100-
EASTERN PENNSYLVANIA

CITY           SKY/WX    TMP DP  RH WIND       PRES   REMARKS
PHILADELPHIA   CLOUDY    50  31  48 SW8       30.11R
ALLENTOWN      CLEAR     41  27  57 SW3       30.08R
SCRANTON       CLEAR     44  26  49 SW5       30.06R
$$

CTZ002-004>006-009-010-012-RIZ004-006-007-MAZ004-011-015-260100-
SOUTHERN NEW ENGLAND
 IN CT

CITY           SKY/WX    TMP DP  RH WIND       PRES   REMARKS
BRADLEY INTL   MOCLDY    48  27  44 SW5       30.02R
HARTFORD       MOCLDY    48  27  44 S3        30.03R
DANBURY        MOCLDY    39  31  72 CALM      30.05R
WTRBRY/OXFORD  MOCLDY    45  25  45 CALM      30.04R
BRIDGEPORT     CLOUDY    48  42  80 W3        30.04R
MERIDEN        MOCLDY    41  32  70 CALM      30.03R
NEW HAVEN      CLOUDY    51  38  60 SW3       30.04R
CHESTER        FAIR      48  30  49 W3        30.03S
GROTON         CLOUDY    50  38  63 W5        30.03R
WILLIMANTIC    MOCLDY    45  30  55 SW3       30.03R

 IN RI

CITY           SKY/WX    TMP DP  RH WIND       PRES   REMARKS
PROVIDENCE     CLOUDY    51  28  41 W6        30.02R
BLOCK ISLAND   CLOUDY    52  34  50 W12       30.03R
WESTERLY       CLOUDY    51  37  58 VRB7      30.03R

 IN MA

CITY           SKY/WX    TMP DP  RH WIND       PRES   REMARKS
BOSTON         MOCLDY    54  27  35 W14G22    29.99R
WORCESTER      PTCLDY    44  25  47 W8        30.00R
WESTFIELD      PTCLDY    42  28  57 CALM      30.01R
PROVINCETOWN   CLOUDY    52  41  66 SW7       30.00R
NANTUCKET      CLOUDY    53  44  71 SW10      30.01R
$$

ANZ330-335-338-340-345-350-353-355-260100-
COASTAL MARINE OBSERVATIONS


STATION/POSITION TIME  SKY/WX   TEMP    WIND        PRES    VSBY  WAVE
                                AIR SEA DIR/SP/G                  HT/PER
                 (UTC)          (F)     (DEG/KT/KT) (MB)    (MI)  (FT/S)
NY HARB ENTRANCE 0000            53 54  250/ 10/ 12 1018.7          5/ 9
4S FIRE IS       0000               53                N/A           5/ 9
20S FIRE ISLAND  0000            55 55  270/ 10/ 14 1017.6          6/10
23SW MTP         0000                                 N/A           6/10
HUDSON CANYON    0000            56 59  310/  8/ 12 1018.1          6/10
EXECUTION ROCKS  0000            51 48  260/  6/  8   N/A
WESTERN LI SOUND 2300            51     220/  8/  8   N/A           0
CENTRAL LI SOUND 2300            52 50  240/ 10/ 12   N/A           1/ 3
EASTERN LI SOUND 2300            53 53  250/ 14/ 16   N/A
ROBBINS REEF     0000            51     250/  6/  7 1016.9
$$


>>>>>>>>>>>>>>>>>>>>>>>>>>>> KEY <<<<<<<<<<<<<<<<<<<<<<<<<<<
>                                                          <
>     SKY/WX - SKY CONDITION/PRESENT WEATHER               <
>     TMP    - TEMPERATURE IN FAHRENHEIT                   <
>     DP     - DEWPOINT IN FAHRENHEIT                      <
>     RH     - RELATIVE HUMIDITY IN PERCENT                <
>     WIND   - DIRECTION AND SPEED IN MPH                  <
>     PRES   - MEAN SEA LEVEL PRESSURE IN INCHES OF HG     <
>     WCI    - WIND CHILL INDEX                            <
>     VSB    - VISIBILITY IN MILES                         <
>     HX     - HEAT INDEX                                  <
>     TC     - TEMPERATURE IN CELSIUS                      <
>     VRB    - VARIABLE WIND DIRECTION                     <
>                                                          <
>>>>>>>>>>>>>>>>>>>>>>>>>>>> KEY <<<<<<<<<<<<<<<<<<<<<<<<<<<





USA.gov is the U.S. government's official web portal to all federal, state and local government web resources and services.